Time,TemperatureF,DewpointF,PressureIn,WindDirection,WindDirectionDegrees,WindSpeedMPH,WindSpeedGustMPH,Humidity,HourlyPrecipIn,Conditions,Clouds,dailyrainin,SoftwareType,DateUTC
2013-03-27 00:01:00,31.1,19.6,30.85,SSE,158,4.0,8.0,62,0.00,,,0.00,meteohub,2013-03-27 06:01:00,
2013-03-27 00:06:00,31.1,19.6,30.85,SSE,158,4.0,7.0,62,0.00,,,0.00,meteohub,2013-03-27 06:06:00,
2013-03-27 00:11:00,31.1,19.6,30.84,South,180,5.0,8.0,62,0.00,,,0.00,meteohub,2013-03-27 06:11:00,
2013-03-27 00:17:00,31.3,19.8,30.85,SE,135,8.0,8.0,62,0.00,,,0.00,meteohub,2013-03-27 06:17:00,
2013-03-27 00:22:00,31.3,19.8,30.85,South,180,5.0,8.0,62,0.00,,,0.00,meteohub,2013-03-27 06:22:00,
2013-03-27 00:27:00,31.3,19.8,30.85,SE,135,6.0,8.0,62,0.00,,,0.00,meteohub,2013-03-27 06:27:00,
2013-03-27 00:32:00,31.5,19.9,30.85,South,180,7.0,8.0,62,0.00,,,0.00,meteohub,2013-03-27 06:32:00,
2013-03-27 00:37:00,31.8,20.3,30.84,SE,135,7.0,9.0,62,0.00,,,0.00,meteohub,2013-03-27 06:37:00,
2013-03-27 00:42:00,31.8,20.3,30.84,SE,135,4.0,9.0,62,0.00,,,0.00,meteohub,2013-03-27 06:42:00,
2013-03-27 00:47:00,31.6,19.8,30.84,South,180,3.0,9.0,61,0.00,,,0.00,meteohub,2013-03-27 06:47:00,
2013-03-27 00:52:00,31.5,19.6,30.84,SE,135,3.0,7.0,61,0.00,,,0.00,meteohub,2013-03-27 06:52:00,
2013-03-27 00:57:00,30.9,19.4,30.84,South,180,4.0,5.0,62,0.00,,,0.00,meteohub,2013-03-27 06:57:00,
2013-03-27 01:02:00,30.6,19.0,30.84,SE,135,2.0,4.0,62,0.00,,,0.00,meteohub,2013-03-27 07:02:00,
2013-03-27 01:07:00,30.6,19.0,30.84,South,180,2.0,4.0,62,0.00,,,0.00,meteohub,2013-03-27 07:07:00,
2013-03-27 01:12:00,30.4,18.9,30.84,South,180,3.0,4.0,62,0.00,,,0.00,meteohub,2013-03-27 07:12:00,
2013-03-27 01:17:00,30.4,18.9,30.84,South,180,3.0,4.0,62,0.00,,,0.00,meteohub,2013-03-27 07:17:00,
2013-03-27 01:22:00,30.4,18.9,30.84,South,180,2.0,5.0,62,0.00,,,0.00,meteohub,2013-03-27 07:22:00,
2013-03-27 01:27:00,30.4,18.9,30.84,SE,135,4.0,5.0,62,0.00,,,0.00,meteohub,2013-03-27 07:27:00,
2013-03-27 01:32:00,30.6,19.0,30.84,SE,135,6.0,6.0,62,0.00,,,0.00,meteohub,2013-03-27 07:32:00,
2013-03-27 01:37:00,30.7,19.2,30.85,South,180,4.0,6.0,62,0.00,,,0.00,meteohub,2013-03-27 07:37:00,
2013-03-27 01:42:00,30.6,19.0,30.85,South,180,4.0,8.0,62,0.00,,,0.00,meteohub,2013-03-27 07:42:00,
2013-03-27 01:47:00,30.4,18.9,30.85,SW,225,2.0,8.0,62,0.00,,,0.00,meteohub,2013-03-27 07:47:00,
2013-03-27 01:52:00,30.0,19.0,30.84,SE,135,2.0,8.0,63,0.00,,,0.00,meteohub,2013-03-27 07:52:00,
2013-03-27 01:57:00,29.8,19.2,30.84,South,180,5.0,8.0,64,0.00,,,0.00,meteohub,2013-03-27 07:57:00,
2013-03-27 02:02:00,30.0,19.4,30.84,SE,135,4.0,6.0,64,0.00,,,0.00,meteohub,2013-03-27 08:02:00,
2013-03-27 02:07:00,30.2,19.0,30.84,SE,135,5.0,6.0,63,0.00,,,0.00,meteohub,2013-03-27 08:07:00,
2013-03-27 02:13:00,30.2,19.0,30.84,South,180,4.0,6.0,63,0.00,,,0.00,meteohub,2013-03-27 08:13:00,
2013-03-27 02:18:00,30.2,19.0,30.84,South,180,4.0,6.0,63,0.00,,,0.00,meteohub,2013-03-27 08:18:00,
2013-03-27 02:23:00,30.0,19.4,30.84,SW,225,4.0,6.0,64,0.00,,,0.00,meteohub,2013-03-27 08:23:00,
2013-03-27 02:28:00,30.0,19.4,30.84,South,180,5.0,6.0,64,0.00,,,0.00,meteohub,2013-03-27 08:28:00,
2013-03-27 02:33:00,29.7,19.0,30.84,SE,135,2.0,6.0,64,0.00,,,0.00,meteohub,2013-03-27 08:33:00,
2013-03-27 02:38:00,29.5,19.2,30.84,South,180,4.0,6.0,65,0.00,,,0.00,meteohub,2013-03-27 08:38:00,
2013-03-27 02:43:00,29.5,19.2,30.83,South,180,6.0,6.0,65,0.00,,,0.00,meteohub,2013-03-27 08:43:00,
2013-03-27 02:48:00,29.5,19.2,30.83,South,180,4.0,7.0,65,0.00,,,0.00,meteohub,2013-03-27 08:48:00,
2013-03-27 02:53:00,29.7,19.4,30.83,SE,135,2.0,7.0,65,0.00,,,0.00,meteohub,2013-03-27 08:53:00,
2013-03-27 02:58:00,29.8,19.2,30.84,South,180,2.0,7.0,64,0.00,,,0.00,meteohub,2013-03-27 08:58:00,
2013-03-27 03:03:00,29.5,19.2,30.84,SE,135,3.0,6.0,65,0.00,,,0.00,meteohub,2013-03-27 09:03:00,
2013-03-27 03:08:00,29.1,18.9,30.84,SE,135,4.0,4.0,65,0.00,,,0.00,meteohub,2013-03-27 09:08:00,
2013-03-27 03:13:00,29.1,18.9,30.84,South,180,5.0,5.0,65,0.00,,,0.00,meteohub,2013-03-27 09:13:00,
2013-03-27 03:18:00,29.1,19.2,30.84,South,180,6.0,7.0,66,0.00,,,0.00,meteohub,2013-03-27 09:18:00,
2013-03-27 03:23:00,29.3,19.4,30.84,South,180,8.0,8.0,66,0.00,,,0.00,meteohub,2013-03-27 09:23:00,
2013-03-27 03:28:00,29.3,19.4,30.84,South,180,8.0,8.0,66,0.00,,,0.00,meteohub,2013-03-27 09:28:00,
2013-03-27 03:33:00,29.5,19.6,30.84,South,180,7.0,8.0,66,0.00,,,0.00,meteohub,2013-03-27 09:33:00,
2013-03-27 03:38:00,29.3,19.8,30.84,South,180,4.0,8.0,67,0.00,,,0.00,meteohub,2013-03-27 09:38:00,
2013-03-27 03:43:00,28.9,20.1,30.84,SE,135,3.0,8.0,69,0.00,,,0.00,meteohub,2013-03-27 09:43:00,
2013-03-27 03:48:00,28.8,20.3,30.84,SSE,158,3.0,8.0,70,0.00,,,0.00,meteohub,2013-03-27 09:48:00,
2013-03-27 03:53:00,28.6,20.7,30.84,North,0,1.0,6.0,72,0.00,,,0.00,meteohub,2013-03-27 09:53:00,
2013-03-27 03:58:00,28.4,20.8,30.85,North,0,4.0,5.0,73,0.00,,,0.00,meteohub,2013-03-27 09:58:00,
2013-03-27 04:03:00,28.4,20.8,30.85,North,0,2.0,4.0,73,0.00,,,0.00,meteohub,2013-03-27 10:03:00,
2013-03-27 04:08:00,27.5,19.6,30.86,North,0,9.0,9.0,72,0.00,,,0.00,meteohub,2013-03-27 10:08:00,
2013-03-27 04:13:00,27.3,20.1,30.86,North,0,5.0,9.0,74,0.00,,,0.00,meteohub,2013-03-27 10:13:00,
2013-03-27 04:18:00,27.1,20.7,30.86,North,0,5.0,9.0,76,0.00,,,0.00,meteohub,2013-03-27 10:18:00,
2013-03-27 04:23:00,27.0,20.7,30.85,North,0,4.0,9.0,77,0.00,,,0.00,meteohub,2013-03-27 10:23:00,
2013-03-27 04:28:00,27.0,21.0,30.85,East,90,4.0,8.0,78,0.00,,,0.00,meteohub,2013-03-27 10:28:00,
2013-03-27 04:33:00,26.8,20.8,30.86,North,0,4.0,8.0,78,0.00,,,0.00,meteohub,2013-03-27 10:33:00,
2013-03-27 04:39:00,26.8,20.8,30.86,NW,315,2.0,7.0,78,0.00,,,0.00,meteohub,2013-03-27 10:39:00,
2013-03-27 04:44:00,26.6,21.0,30.86,NW,315,4.0,5.0,79,0.00,,,0.00,meteohub,2013-03-27 10:44:00,
2013-03-27 04:49:00,26.6,21.0,30.87,North,0,2.0,6.0,79,0.00,,,0.00,meteohub,2013-03-27 10:49:00,
2013-03-27 04:54:00,26.6,21.0,30.87,NW,315,3.0,6.0,79,0.00,,,0.00,meteohub,2013-03-27 10:54:00,
2013-03-27 04:59:00,26.4,21.0,30.87,North,0,4.0,6.0,80,0.00,,,0.00,meteohub,2013-03-27 10:59:00,
2013-03-27 05:04:00,26.4,21.0,30.87,NE,45,3.0,6.0,80,0.00,,,0.00,meteohub,2013-03-27 11:04:00,
2013-03-27 05:09:00,26.4,21.0,30.87,NE,45,2.0,6.0,80,0.00,,,0.00,meteohub,2013-03-27 11:09:00,
2013-03-27 05:14:00,26.2,20.8,30.87,North,0,0.0,6.0,80,0.00,,,0.00,meteohub,2013-03-27 11:14:00,
2013-03-27 05:19:00,26.2,20.8,30.87,North,0,0.0,3.0,80,0.00,,,0.00,meteohub,2013-03-27 11:19:00,
2013-03-27 05:24:00,26.2,20.8,30.86,North,0,0.0,3.0,80,0.00,,,0.00,meteohub,2013-03-27 11:24:00,
2013-03-27 05:29:00,26.2,20.8,30.87,North,0,0.0,0.0,80,0.00,,,0.00,meteohub,2013-03-27 11:29:00,
2013-03-27 05:34:00,26.2,20.8,30.87,NW,315,0.0,0.0,80,0.00,,,0.00,meteohub,2013-03-27 11:34:00,
2013-03-27 05:39:00,26.2,20.8,30.87,NW,315,0.0,0.0,80,0.00,,,0.00,meteohub,2013-03-27 11:39:00,
2013-03-27 05:44:00,26.2,20.8,30.87,NE,45,0.0,0.0,80,0.00,,,0.00,meteohub,2013-03-27 11:44:00,
2013-03-27 05:49:00,26.2,20.8,30.87,NE,45,0.0,0.0,80,0.00,,,0.00,meteohub,2013-03-27 11:49:00,
2013-03-27 05:54:00,26.2,20.8,30.87,NE,45,0.0,0.0,80,0.00,,,0.00,meteohub,2013-03-27 11:54:00,
2013-03-27 05:59:00,26.2,20.8,30.87,East,90,0.0,0.0,80,0.00,,,0.00,meteohub,2013-03-27 11:59:00,
2013-03-27 06:04:00,26.2,20.8,30.87,East,90,0.0,0.0,80,0.00,,,0.00,meteohub,2013-03-27 12:04:00,
2013-03-27 06:09:00,26.2,20.8,30.87,East,90,0.0,0.0,80,0.00,,,0.00,meteohub,2013-03-27 12:09:00,
2013-03-27 06:14:00,26.2,20.8,30.88,East,90,0.0,0.0,80,0.00,,,0.00,meteohub,2013-03-27 12:14:00,
2013-03-27 06:19:00,26.4,21.0,30.87,South,180,0.0,0.0,80,0.00,,,0.00,meteohub,2013-03-27 12:19:00,
2013-03-27 06:24:00,26.4,21.0,30.87,South,180,0.0,0.0,80,0.00,,,0.00,meteohub,2013-03-27 12:24:00,
2013-03-27 06:29:00,26.4,21.0,30.87,South,180,0.0,0.0,80,0.00,,,0.00,meteohub,2013-03-27 12:29:00,
2013-03-27 06:34:00,26.2,20.8,30.87,SE,135,0.0,0.0,80,0.00,,,0.00,meteohub,2013-03-27 12:34:00,
2013-03-27 06:39:00,26.1,20.7,30.88,SE,135,0.0,0.0,80,0.00,,,0.00,meteohub,2013-03-27 12:39:00,
2013-03-27 06:44:00,26.1,20.5,30.88,SE,135,0.0,0.0,79,0.00,,,0.00,meteohub,2013-03-27 12:44:00,
2013-03-27 06:49:00,26.1,20.5,30.88,SE,135,0.0,0.0,79,0.00,,,0.00,meteohub,2013-03-27 12:49:00,
2013-03-27 06:54:00,26.1,20.5,30.88,SE,135,0.0,0.0,79,0.00,,,0.00,meteohub,2013-03-27 12:54:00,
2013-03-27 06:59:00,26.1,20.5,30.88,SE,135,0.0,0.0,79,0.00,,,0.00,meteohub,2013-03-27 12:59:00,
2013-03-27 07:04:00,26.1,20.5,30.88,SE,135,0.0,0.0,79,0.00,,,0.00,meteohub,2013-03-27 13:04:00,
2013-03-27 07:09:00,26.1,20.5,30.88,SE,135,0.0,0.0,79,0.00,,,0.00,meteohub,2013-03-27 13:09:00,
2013-03-27 07:14:00,26.1,20.7,30.89,SE,135,0.0,0.0,80,0.00,,,0.00,meteohub,2013-03-27 13:14:00,
2013-03-27 07:19:00,26.2,20.8,30.89,SW,225,0.0,0.0,80,0.00,,,0.00,meteohub,2013-03-27 13:19:00,
2013-03-27 07:24:00,26.4,21.0,30.89,SW,225,0.0,0.0,80,0.00,,,0.00,meteohub,2013-03-27 13:24:00,
2013-03-27 07:29:00,26.6,21.0,30.89,SW,225,0.0,0.0,79,0.00,,,0.00,meteohub,2013-03-27 13:29:00,
2013-03-27 07:34:00,26.8,21.2,30.89,South,180,0.0,0.0,79,0.00,,,0.00,meteohub,2013-03-27 13:34:00,
2013-03-27 07:39:00,26.8,21.2,30.89,SE,135,0.0,0.0,79,0.00,,,0.00,meteohub,2013-03-27 13:39:00,
2013-03-27 07:44:00,27.0,21.4,30.89,SE,135,0.0,0.0,79,0.00,,,0.00,meteohub,2013-03-27 13:44:00,
2013-03-27 07:49:00,27.3,21.7,30.89,SE,135,0.0,0.0,79,0.00,,,0.00,meteohub,2013-03-27 13:49:00,
2013-03-27 07:54:00,27.5,21.9,30.89,SE,135,0.0,0.0,79,0.00,,,0.00,meteohub,2013-03-27 13:54:00,
2013-03-27 07:59:00,27.7,22.1,30.89,SE,135,0.0,0.0,79,0.00,,,0.00,meteohub,2013-03-27 13:59:00,
2013-03-27 08:04:00,27.7,22.1,30.90,SE,135,0.0,0.0,79,0.00,,,0.00,meteohub,2013-03-27 14:04:00,
2013-03-27 08:09:00,28.4,23.9,30.90,SE,135,0.0,0.0,83,0.00,,,0.00,meteohub,2013-03-27 14:09:00,
2013-03-27 08:14:00,28.4,23.9,30.90,SW,225,0.0,0.0,83,0.00,,,0.00,meteohub,2013-03-27 14:14:00,
2013-03-27 08:19:00,28.4,23.9,30.89,SW,225,0.0,0.0,83,0.00,,,0.00,meteohub,2013-03-27 14:19:00,
2013-03-27 08:24:00,28.2,22.6,30.89,SSW,203,0.0,0.0,79,0.00,,,0.00,meteohub,2013-03-27 14:24:00,
2013-03-27 08:30:00,28.2,22.6,30.90,SW,225,0.0,0.0,79,0.00,,,0.00,meteohub,2013-03-27 14:30:00,
2013-03-27 08:35:00,28.8,24.3,30.90,SW,225,0.0,0.0,83,0.00,,,0.00,meteohub,2013-03-27 14:35:00,
2013-03-27 08:40:00,29.3,24.8,30.90,SW,225,0.0,0.0,83,0.00,,,0.00,meteohub,2013-03-27 14:40:00,
2013-03-27 08:45:00,29.8,25.3,30.89,SW,225,0.0,0.0,83,0.00,,,0.00,meteohub,2013-03-27 14:45:00,
2013-03-27 08:50:00,30.9,26.1,30.90,SW,225,0.0,0.0,82,0.00,,,0.00,meteohub,2013-03-27 14:50:00,
2013-03-27 08:55:00,31.6,26.8,30.90,SW,225,0.0,0.0,82,0.00,,,0.00,meteohub,2013-03-27 14:55:00,
2013-03-27 09:00:00,32.5,27.1,30.90,South,180,0.0,0.0,80,0.00,,,0.00,meteohub,2013-03-27 15:00:00,
2013-03-27 09:05:00,33.3,27.7,30.90,SE,135,1.0,2.0,80,0.00,,,0.00,meteohub,2013-03-27 15:05:00,
2013-03-27 09:10:00,33.4,27.3,30.90,SE,135,2.0,2.0,78,0.00,,,0.00,meteohub,2013-03-27 15:10:00,
2013-03-27 09:15:00,33.8,26.8,30.89,East,90,1.0,2.0,75,0.00,,,0.00,meteohub,2013-03-27 15:15:00,
2013-03-27 09:20:00,34.3,27.0,30.90,South,180,3.0,3.0,74,0.00,,,0.00,meteohub,2013-03-27 15:20:00,
2013-03-27 09:25:00,34.9,26.8,30.90,South,180,4.0,4.0,72,0.00,,,0.00,meteohub,2013-03-27 15:25:00,
2013-03-27 09:30:00,34.2,25.3,30.89,South,180,4.0,4.0,70,0.00,,,0.00,meteohub,2013-03-27 15:30:00,
2013-03-27 09:35:00,33.1,24.4,30.90,SE,135,2.0,6.0,70,0.00,,,0.00,meteohub,2013-03-27 15:35:00,
2013-03-27 09:40:00,32.9,23.9,30.90,SE,135,3.0,6.0,69,0.00,,,0.00,meteohub,2013-03-27 15:40:00,
2013-03-27 09:45:00,32.5,23.2,30.89,East,90,4.0,6.0,68,0.00,,,0.00,meteohub,2013-03-27 15:45:00,
2013-03-27 09:50:00,32.7,23.0,30.90,SE,135,2.0,4.0,67,0.00,,,0.00,meteohub,2013-03-27 15:50:00,
2013-03-27 09:55:00,33.4,23.7,30.90,East,90,2.0,4.0,67,0.00,,,0.00,meteohub,2013-03-27 15:55:00,
2013-03-27 10:00:00,34.3,24.1,30.90,East,90,2.0,4.0,66,0.00,,,0.00,meteohub,2013-03-27 16:00:00,
2013-03-27 10:05:00,34.3,24.1,30.90,East,90,2.0,4.0,66,0.00,,,0.00,meteohub,2013-03-27 16:05:00,
2013-03-27 10:10:00,37.4,27.1,30.90,SE,135,2.0,3.0,66,0.00,,,0.00,meteohub,2013-03-27 16:10:00,
2013-03-27 10:15:00,39.0,27.9,30.90,South,180,3.0,3.0,64,0.00,,,0.00,meteohub,2013-03-27 16:15:00,
2013-03-27 10:20:00,39.4,27.1,30.90,SE,135,3.0,4.0,61,0.00,,,0.00,meteohub,2013-03-27 16:20:00,
2013-03-27 10:25:00,39.9,26.8,30.90,SE,135,2.0,4.0,59,0.00,,,0.00,meteohub,2013-03-27 16:25:00,
2013-03-27 10:30:00,40.5,26.4,30.90,SE,135,4.0,4.0,57,0.00,,,0.00,meteohub,2013-03-27 16:30:00,
2013-03-27 10:35:00,40.6,26.2,30.90,SE,135,4.0,4.0,56,0.00,,,0.00,meteohub,2013-03-27 16:35:00,
2013-03-27 10:40:00,41.5,26.6,30.90,SE,135,4.0,4.0,55,0.01,,,0.01,meteohub,2013-03-27 16:40:00,
2013-03-27 10:45:00,42.1,26.2,30.90,East,90,3.0,4.0,53,0.05,,,0.05,meteohub,2013-03-27 16:45:00,
2013-03-27 10:50:00,42.4,24.6,30.90,SE,135,2.0,4.0,49,0.08,,,0.08,meteohub,2013-03-27 16:50:00,
2013-03-27 10:55:00,42.8,23.9,30.90,SE,135,4.0,4.0,47,0.09,,,0.09,meteohub,2013-03-27 16:55:00,
2013-03-27 11:00:00,43.0,23.5,30.91,North,0,2.0,4.0,46,0.12,,,0.12,meteohub,2013-03-27 17:00:00,
2013-03-27 11:05:00,43.7,24.3,30.90,SE,135,0.0,4.0,46,0.13,,,0.12,meteohub,2013-03-27 17:05:00,
2013-03-27 11:11:00,44.2,23.2,30.90,North,0,4.0,4.0,43,0.14,,,0.14,meteohub,2013-03-27 17:11:00,
2013-03-27 11:16:00,43.7,22.6,30.91,NW,315,2.0,7.0,43,0.14,,,0.14,meteohub,2013-03-27 17:16:00,
2013-03-27 11:21:00,43.7,22.6,30.91,SE,135,2.0,7.0,43,0.15,,,0.15,meteohub,2013-03-27 17:21:00,
2013-03-27 11:26:00,43.9,22.8,30.90,SE,135,1.0,7.0,43,0.15,,,0.15,meteohub,2013-03-27 17:26:00,
2013-03-27 11:31:00,44.8,23.0,30.91,North,0,4.0,4.0,42,0.15,,,0.15,meteohub,2013-03-27 17:31:00,
2013-03-27 11:35:00,44.2,24.3,30.91,East,90,1.0,4.0,45,0.15,,,0.15,meteohub,2013-03-27 17:35:00,
2013-03-27 11:40:00,43.5,23.5,30.91,East,90,3.0,4.0,45,0.12,,,0.15,meteohub,2013-03-27 17:40:00,
2013-03-27 11:45:00,43.3,21.7,30.91,East,90,1.0,4.0,42,0.09,,,0.15,meteohub,2013-03-27 17:45:00,
2013-03-27 11:50:00,44.4,22.1,30.91,South,180,2.0,4.0,41,0.07,,,0.15,meteohub,2013-03-27 17:50:00,
2013-03-27 11:55:00,46.6,24.8,30.90,South,180,1.0,4.0,42,0.05,,,0.15,meteohub,2013-03-27 17:55:00,
2013-03-27 12:01:00,47.5,24.4,30.90,North,0,2.0,2.0,40,0.04,,,0.15,meteohub,2013-03-27 18:01:00,
2013-03-27 12:06:00,47.5,24.4,30.90,North,0,2.0,2.0,40,0.02,,,0.15,meteohub,2013-03-27 18:06:00,
2013-03-27 12:11:00,45.7,21.6,30.91,SE,135,1.0,4.0,38,0.01,,,0.15,meteohub,2013-03-27 18:11:00,
2013-03-27 12:16:00,45.1,21.0,30.90,SE,135,2.0,4.0,38,0.00,,,0.15,meteohub,2013-03-27 18:16:00,
2013-03-27 12:21:00,45.5,21.4,30.91,SE,135,2.0,4.0,38,0.00,,,0.15,meteohub,2013-03-27 18:21:00,
2013-03-27 12:26:00,47.5,23.2,30.91,SW,225,2.0,3.0,38,0.00,,,0.15,meteohub,2013-03-27 18:26:00,
2013-03-27 12:31:00,49.3,22.1,30.91,North,0,4.0,4.0,34,0.00,,,0.15,meteohub,2013-03-27 18:31:00,
2013-03-27 12:37:00,48.6,19.9,30.91,NW,315,2.0,5.0,32,0.00,,,0.15,meteohub,2013-03-27 18:37:00,
2013-03-27 12:42:00,49.1,19.8,30.90,East,90,2.0,7.0,31,0.00,,,0.15,meteohub,2013-03-27 18:42:00,
2013-03-27 12:47:00,48.7,19.4,30.90,NW,315,3.0,7.0,31,0.00,,,0.15,meteohub,2013-03-27 18:47:00,
2013-03-27 12:52:00,47.8,19.4,30.90,NE,45,2.0,7.0,32,0.00,,,0.15,meteohub,2013-03-27 18:52:00,
2013-03-27 12:57:00,49.1,20.5,30.91,NW,315,7.0,7.0,32,0.00,,,0.15,meteohub,2013-03-27 18:57:00,
2013-03-27 13:02:00,47.7,18.5,30.91,West,270,8.0,8.0,31,0.00,,,0.15,meteohub,2013-03-27 19:02:00,
2013-03-27 13:07:00,46.2,15.6,30.90,WNW,293,6.0,8.0,29,0.00,,,0.15,meteohub,2013-03-27 19:07:00,
2013-03-27 13:12:00,45.1,16.3,30.90,NE,45,8.0,8.0,31,0.00,,,0.15,meteohub,2013-03-27 19:12:00,
2013-03-27 13:17:00,45.0,17.6,30.90,North,0,8.0,8.0,33,0.00,,,0.15,meteohub,2013-03-27 19:17:00,
2013-03-27 13:22:00,44.4,15.6,30.90,East,90,2.0,14.0,31,0.00,,,0.15,meteohub,2013-03-27 19:22:00,
2013-03-27 13:27:00,44.2,17.6,30.90,WNW,293,6.0,15.0,34,0.00,,,0.15,meteohub,2013-03-27 19:27:00,
2013-03-27 13:32:00,43.7,15.1,30.90,North,0,7.0,15.0,31,0.00,,,0.15,meteohub,2013-03-27 19:32:00,
2013-03-27 13:37:00,43.7,17.2,30.90,NW,315,8.0,15.0,34,0.00,,,0.15,meteohub,2013-03-27 19:37:00,
2013-03-27 13:42:00,43.7,16.5,30.90,NE,45,3.0,8.0,33,0.00,,,0.15,meteohub,2013-03-27 19:42:00,
2013-03-27 13:47:00,45.5,18.1,30.90,NW,315,7.0,8.0,33,0.00,,,0.15,meteohub,2013-03-27 19:47:00,
2013-03-27 13:52:00,45.9,15.4,30.90,NW,315,6.0,8.0,29,0.00,,,0.15,meteohub,2013-03-27 19:52:00,
2013-03-27 13:59:00,45.7,12.7,30.90,North,0,15.0,15.0,26,0.00,,,0.15,meteohub,2013-03-27 19:59:00,
2013-03-27 14:04:00,44.6,10.0,30.90,NE,45,4.0,15.0,24,0.00,,,0.15,meteohub,2013-03-27 20:04:00,
2013-03-27 14:09:00,44.6,10.9,30.90,NNW,338,16.0,16.0,25,0.00,,,0.15,meteohub,2013-03-27 20:09:00,
2013-03-27 14:14:00,46.4,14.2,30.90,NE,45,9.0,15.0,27,0.00,,,0.15,meteohub,2013-03-27 20:14:00,
2013-03-27 14:19:00,47.3,14.2,30.89,SW,225,2.0,16.0,26,0.00,,,0.15,meteohub,2013-03-27 20:19:00,
2013-03-27 14:24:00,49.1,15.6,30.88,North,0,7.0,16.0,26,0.00,,,0.15,meteohub,2013-03-27 20:24:00,
2013-03-27 14:29:00,49.6,14.4,30.89,North,0,6.0,11.0,24,0.00,,,0.15,meteohub,2013-03-27 20:29:00,
2013-03-27 14:34:00,50.2,13.8,30.88,NW,315,13.0,13.0,23,0.00,,,0.15,meteohub,2013-03-27 20:34:00,
2013-03-27 14:39:00,49.8,14.5,30.89,NW,315,4.0,8.0,24,0.00,,,0.15,meteohub,2013-03-27 20:39:00,
2013-03-27 14:44:00,50.2,12.7,30.89,North,0,4.0,15.0,22,0.00,,,0.15,meteohub,2013-03-27 20:44:00,
2013-03-27 14:49:00,50.4,12.9,30.88,SE,135,9.0,15.0,22,0.00,,,0.15,meteohub,2013-03-27 20:49:00,
2013-03-27 14:54:00,50.0,13.6,30.89,East,90,10.0,11.0,23,0.00,,,0.15,meteohub,2013-03-27 20:54:00,
2013-03-27 14:59:00,50.2,13.8,30.89,NE,45,18.0,18.0,23,0.00,,,0.15,meteohub,2013-03-27 20:59:00,
2013-03-27 15:04:00,48.9,17.2,30.89,NW,315,10.0,18.0,28,0.00,,,0.15,meteohub,2013-03-27 21:04:00,
2013-03-27 15:09:00,48.6,17.8,30.88,North,0,7.0,18.0,29,0.00,,,0.15,meteohub,2013-03-27 21:09:00,
2013-03-27 15:14:00,49.3,18.3,30.89,NE,45,8.0,18.0,29,0.00,,,0.15,meteohub,2013-03-27 21:14:00,
2013-03-27 15:19:00,49.6,17.8,30.88,NE,45,8.0,12.0,28,0.00,,,0.15,meteohub,2013-03-27 21:19:00,
2013-03-27 15:24:00,49.3,15.8,30.88,NW,315,4.0,10.0,26,0.00,,,0.15,meteohub,2013-03-27 21:24:00,
2013-03-27 15:29:00,48.0,15.6,30.89,North,0,5.0,8.0,27,0.00,,,0.15,meteohub,2013-03-27 21:29:00,
2013-03-27 15:34:00,48.4,16.0,30.89,East,90,7.0,8.0,27,0.00,,,0.15,meteohub,2013-03-27 21:34:00,
2013-03-27 15:39:00,49.1,16.5,30.88,North,0,4.0,8.0,27,0.00,,,0.15,meteohub,2013-03-27 21:39:00,
2013-03-27 15:44:00,50.0,13.6,30.88,NW,315,7.0,8.0,23,0.00,,,0.15,meteohub,2013-03-27 21:44:00,
2013-03-27 15:49:00,50.5,14.2,30.89,East,90,8.0,8.0,23,0.00,,,0.15,meteohub,2013-03-27 21:49:00,
2013-03-27 15:55:00,50.7,16.2,30.89,North,0,6.0,9.0,25,0.00,,,0.15,meteohub,2013-03-27 21:55:00,
2013-03-27 16:00:00,50.7,17.1,30.89,NW,315,11.0,11.0,26,0.00,,,0.15,meteohub,2013-03-27 22:00:00,
2013-03-27 16:05:00,50.7,17.1,30.89,NW,315,11.0,11.0,26,0.00,,,0.15,meteohub,2013-03-27 22:05:00,
2013-03-27 16:10:00,49.5,18.5,30.89,North,0,8.0,11.0,29,0.00,,,0.15,meteohub,2013-03-27 22:10:00,
2013-03-27 16:15:00,48.7,18.7,30.89,North,0,8.0,11.0,30,0.00,,,0.15,meteohub,2013-03-27 22:15:00,
2013-03-27 16:20:00,46.4,18.9,30.90,North,0,8.0,11.0,33,0.00,,,0.15,meteohub,2013-03-27 22:20:00,
2013-03-27 16:25:00,45.0,18.9,30.89,North,0,7.0,11.0,35,0.00,,,0.15,meteohub,2013-03-27 22:25:00,
2013-03-27 16:30:00,44.6,18.0,30.89,NE,45,6.0,11.0,34,0.00,,,0.15,meteohub,2013-03-27 22:30:00,
2013-03-27 16:35:00,44.1,18.9,30.89,NW,315,8.0,13.0,36,0.00,,,0.15,meteohub,2013-03-27 22:35:00,
2013-03-27 16:40:00,43.5,20.1,30.89,NW,315,6.0,13.0,39,0.00,,,0.15,meteohub,2013-03-27 22:40:00,
2013-03-27 16:45:00,43.3,20.1,30.89,NW,315,6.0,13.0,39,0.00,,,0.15,meteohub,2013-03-27 22:45:00,
2013-03-27 16:50:00,43.3,17.6,30.89,NW,315,2.0,11.0,35,0.00,,,0.15,meteohub,2013-03-27 22:50:00,
2013-03-27 16:55:00,43.7,17.8,30.89,North,0,4.0,8.0,35,0.00,,,0.15,meteohub,2013-03-27 22:55:00,
2013-03-27 17:00:00,43.9,18.0,30.89,North,0,4.0,7.0,35,0.00,,,0.15,meteohub,2013-03-27 23:00:00,
2013-03-27 17:05:00,43.5,18.3,30.89,NE,45,3.0,6.0,36,0.00,,,0.15,meteohub,2013-03-27 23:05:00,
2013-03-27 17:10:00,43.3,18.1,30.89,North,0,2.0,5.0,36,0.00,,,0.15,meteohub,2013-03-27 23:10:00,
2013-03-27 17:15:00,43.5,18.3,30.89,NW,315,4.0,5.0,36,0.00,,,0.15,meteohub,2013-03-27 23:15:00,
2013-03-27 17:20:00,43.7,19.0,30.90,NW,315,3.0,5.0,37,0.00,,,0.15,meteohub,2013-03-27 23:20:00,
2013-03-27 17:25:00,43.5,20.1,30.89,North,0,2.0,7.0,39,0.00,,,0.15,meteohub,2013-03-27 23:25:00,
2013-03-27 17:30:00,43.5,20.1,30.89,North,0,1.0,7.0,39,0.00,,,0.15,meteohub,2013-03-27 23:30:00,
2013-03-27 17:35:00,43.3,20.1,30.89,NW,315,1.0,7.0,39,0.00,,,0.15,meteohub,2013-03-27 23:35:00,
2013-03-27 17:40:00,43.3,20.1,30.90,South,180,2.0,3.0,39,0.00,,,0.15,meteohub,2013-03-27 23:40:00,
2013-03-27 17:45:00,43.2,19.9,30.90,South,180,3.0,3.0,39,0.00,,,0.15,meteohub,2013-03-27 23:45:00,
2013-03-27 17:50:00,42.8,19.6,30.90,South,180,3.0,3.0,39,0.00,,,0.15,meteohub,2013-03-27 23:50:00,
2013-03-27 17:55:00,42.6,19.9,30.90,South,180,2.0,3.0,40,0.00,,,0.15,meteohub,2013-03-27 23:55:00,
2013-03-27 18:00:00,42.4,19.8,30.90,South,180,2.0,4.0,40,0.00,,,0.15,meteohub,2013-03-28 00:00:00,
2013-03-27 18:05:00,42.4,19.8,30.90,South,180,2.0,4.0,40,0.00,,,0.15,meteohub,2013-03-28 00:05:00,
2013-03-27 18:10:00,42.3,19.6,30.90,SE,135,2.0,4.0,40,0.00,,,0.15,meteohub,2013-03-28 00:10:00,
2013-03-27 18:15:00,42.3,20.8,30.91,South,180,1.0,3.0,42,0.00,,,0.15,meteohub,2013-03-28 00:15:00,
2013-03-27 18:20:00,42.3,20.8,30.91,South,180,2.0,2.0,42,0.00,,,0.15,meteohub,2013-03-28 00:20:00,
2013-03-27 18:25:00,42.1,20.7,30.91,NE,45,2.0,3.0,42,0.00,,,0.15,meteohub,2013-03-28 00:25:00,